FW5264 Weather Reports


Display with metric or nautical units.
time (UTC)temp
F
wind
direction
speed
MPH
gust
MPH
rain 1hr
in
rain 24hr
in
rain mn
in
humidity
%
barometer
mb
20260507171327 62 191 3.0 6.0 0.00 0.32 0.16 86 1016.1
20260507171225 62 192 1.0 7.0 0.00 0.32 0.16 86 1016.0
20260507170225 61 176 1.0 3.0 0.00 0.32 0.16 86 1016.1
20260507165324 61 191 0.0 0.0 0.00 0.32 0.16 86 1016.1
20260507164326 61 179 1.0 4.0 0.00 0.32 0.16 88 1016.4
20260507164241 61 190 1.0 3.0 0.00 0.32 0.16 87 1016.3
20260507163326 60 27 0.0 2.0 0.00 0.32 0.16 88 1016.4
20260507161424 59 180 0.0 2.0 0.00 0.32 0.16 89 1016.8
20260507160427 58 78 0.0 2.0 0.00 0.32 0.16 89 1016.8
20260507155425 58 186 0.0 3.0 0.00 0.32 0.16 89 1016.7
20260507154428 57 180 0.0 0.0 0.00 0.32 0.16 90 1017.0
20260507153427 57 179 1.0 3.0 0.00 0.32 0.16 90 1017.0
20260507152440 57 156 4.0 7.0 0.00 0.32 0.16 89 1017.0
20260507151426 56 261 1.0 6.0 0.00 0.32 0.16 91 1017.2
20260507145441 54 274 0.0 2.0 0.00 0.32 0.16 91 1017.2
20260507144525 54 292 0.0 2.0 0.00 0.32 0.16 91 1017.2
20260507142624 52 302 2.0 6.0 0.01 0.32 0.16 91 1017.1
20260507141626 51 317 1.0 3.0 0.01 0.32 0.16 91 1017.7
20260507140628 50 165 0.0 3.0 0.01 0.32 0.16 90 1017.2
20260507134725 49 28 0.0 0.0 0.01 0.32 0.16 89 1017.4
20260507133726 49 292 0.0 0.0 0.00 0.31 0.15 90 1017.4
20260507132726 49 16 2.0 6.0 0.00 0.31 0.15 90 1017.3
20260507131742 48 44 0.0 1.0 0.00 0.31 0.15 89 1017.2
20260507130742 48 343 0.0 0.0 0.00 0.31 0.15 89 1016.7
20260507125826 48 207 2.0 7.0 0.00 0.31 0.15 89 1017.1
20260507124924 48 10 0.0 2.0 0.01 0.31 0.15 90 1016.8
20260507123926 49 33 2.0 5.0 0.01 0.31 0.15 90 1017.3
20260507122927 49 25 1.0 6.0 0.01 0.31 0.15 90 1017.4
20260507122024 49 59 0.0 2.0 0.02 0.31 0.15 89 1017.4
20260507121124 49 345 0.0 3.0 0.03 0.31 0.15 89 1017.4
20260507120126 49 28 3.0 7.0 0.03 0.31 0.15 90 1017.0
20260507115142 49 28 3.0 8.0 0.02 0.30 0.14 90 1017.0
20260507114125 49 19 2.0 7.0 0.02 0.30 0.14 90 1016.9
20260507113124 49 62 0.0 1.0 0.02 0.30 0.14 90 1016.9
20260507111126 50 12 1.0 4.0 0.00 0.28 0.12 90 1016.8
20260507110125 50 39 2.0 6.0 0.00 0.28 0.12 90 1016.3
20260507105126 51 74 0.0 3.0 0.01 0.28 0.12 89 1016.2
20260507103126 51 6 1.0 6.0 0.02 0.28 0.12 90 1016.2
20260507102224 51 21 1.0 5.0 0.09 0.28 0.12 89 1016.2
20260507101225 51 334 0.0 2.0 0.11 0.28 0.12 90 1015.9
20260507100226 52 30 1.0 4.0 0.12 0.28 0.12 90 1015.5
20260507095227 52 8 3.0 7.0 0.11 0.27 0.11 90 1015.3
20260507094228 52 53 0.0 6.0 0.11 0.27 0.11 90 1014.8
20260507093224 52 41 1.0 3.0 0.10 0.26 0.10 90 1014.3
20260507092226 52 280 3.0 11.0 0.03 0.19 0.03 90 1015.0
20260507091227 52 137 3.0 6.0 0.01 0.17 0.01 90 1015.0
20260507090227 52 22 0.0 2.0 0.00 0.16 0.00 90 1014.8
20260507085325 52 22 0.0 3.0 0.00 0.16 0.00 90 1014.8
20260507082341 52 223 1.0 3.0 0.00 0.16 0.00 88 1015.6
20260507081340 52 247 0.0 0.0 0.00 0.16 0.00 89 1014.9
20260507080325 52 182 0.0 4.0 0.00 0.16 0.00 89 1015.0
20260507075424 52 218 0.0 1.0 0.00 0.16 0.00 89 1015.1
20260507074426 52 225 0.0 0.0 0.00 0.16 0.00 89 1015.1
20260507073426 53 197 0.0 2.0 0.00 0.16 0.00 89 1015.0
20260507072425 53 247 0.0 0.0 0.00 0.16 0.00 88 1015.0
20260507071424 53 292 0.0 0.0 0.00 0.16 0.00 89 1014.9
20260507070440 53 180 0.0 0.0 0.00 0.16 0.00 89 1015.3
20260507065427 53 247 0.0 2.0 0.00 0.16 0.00 88 1015.5
20260507064425 53 211 0.0 1.0 0.00 0.16 0.00 89 1015.5
20260507062427 54 247 0.0 0.0 0.00 0.16 0.00 88 1015.5
20260507060426 54 194 2.0 7.0 0.00 0.16 0.00 88 1015.3
20260507055425 54 178 0.0 2.0 0.00 0.16 0.00 87 1015.4
20260507054425 54 221 2.0 9.0 0.00 0.16 0.00 87 1015.8
20260507052525 54 229 0.0 1.0 0.00 0.16 0.00 88 1016.0
20260507051525 54 247 1.0 4.0 0.00 0.16 0.00 87 1015.9
20260507050542 54 220 0.0 3.0 0.00 0.16 0.00 88 1016.4
20260507045626 55 247 0.0 1.0 0.00 0.16 0.00 87 1016.5
20260507044725 55 207 2.0 5.0 0.00 0.16 0.00 87 1016.5
20260507043725 55 209 1.0 4.0 0.00 0.16 0.00 87 1016.8
20260507042726 55 212 0.0 2.0 0.00 0.16 0.00 87 1016.5
20260507041725 55 233 3.0 7.0 0.00 0.16 0.00 87 1016.6
20260507040727 55 224 2.0 5.0 0.00 0.16 0.00 86 1016.8
20260507034907 55 215 1.0 5.0 0.00 0.16 0.16 86 1016.9
20260507032910 55 217 4.0 7.0 0.00 0.16 0.16 86 1016.7
20260507032009 55 221 5.0 10.0 0.00 0.16 0.16 86 1017.1
20260507031025 55 224 4.0 7.0 0.00 0.16 0.16 86 1016.8
20260507030008 55 230 4.0 10.0 0.00 0.16 0.16 85 1016.7
20260507025011 55 228 5.0 9.0 0.00 0.16 0.16 85 1016.7
20260507024109 55 218 5.0 9.0 0.00 0.16 0.16 85 1017.1
20260507023109 55 218 2.0 4.0 0.00 0.16 0.16 85 1017.1
20260507023010 55 220 2.0 5.0 0.00 0.16 0.16 85 1017.3
20260507022011 55 220 3.0 6.0 0.00 0.16 0.16 84 1017.3
20260507020925 55 236 2.0 4.0 0.00 0.16 0.16 84 1017.5
20260507020011 55 213 4.0 8.0 0.00 0.16 0.16 84 1017.5
20260507015010 55 230 2.0 6.0 0.00 0.16 0.16 84 1017.7
20260507012208 55 234 3.0 8.0 0.01 0.16 0.16 83 1018.0
20260507011210 55 229 4.0 7.0 0.04 0.16 0.16 83 1018.1
20260507010210 55 218 1.0 3.0 0.06 0.16 0.16 81 1018.0
20260507005209 55 217 4.0 16.0 0.10 0.16 0.16 82 1017.8
20260507003309 55 230 2.0 6.0 0.12 0.16 0.16 80 1017.8
20260507002310 55 225 1.0 6.0 0.11 0.15 0.15 81 1017.8
20260507001310 54 222 1.0 7.0 0.09 0.12 0.12 80 1017.8
20260506235410 54 227 2.0 4.0 0.05 0.06 0.06 80 1017.8
20260506234325 54 220 1.0 7.0 0.05 0.06 0.06 80 1017.6
20260506233409 54 214 4.0 8.0 0.04 0.04 0.04 79 1017.5
20260506232424 54 211 3.0 9.0 0.04 0.04 0.04 78 1017.6
20260506231510 54 214 3.0 7.0 0.03 0.03 0.03 78 1017.9
20260506230510 54 203 3.0 5.0 0.02 0.02 0.02 78 1018.1
20260506224510 54 217 4.0 10.0 0.01 0.01 0.01 78 1018.3
20260506223609 54 209 3.0 7.0 0.00 0.00 0.00 77 1018.3
20260506221709 55 204 4.0 13.0 0.00 0.00 0.00 77 1018.5
20260506215727 55 207 2.0 10.0 0.00 0.00 0.00 78 1018.3
20260506214808 55 231 4.0 7.0 0.00 0.00 0.00 78 1018.5
20260506213808 55 201 3.0 8.0 0.00 0.00 0.00 77 1018.5
20260506212811 56 213 2.0 5.0 0.00 0.00 0.00 76 1018.7
20260506211909 56 220 5.0 12.0 0.00 0.00 0.00 77 1018.9
20260506210911 56 232 2.0 5.0 0.00 0.00 0.00 76 1018.6
20260506204911 56 208 2.0 4.0 0.00 0.00 0.00 77 1018.9
20260506204008 56 218 2.0 5.0 0.00 0.00 0.00 77 1018.9
20260506203010 56 214 1.0 4.0 0.00 0.00 0.00 76 1019.2
20260506201025 57 221 3.0 4.0 0.00 0.00 0.00 77 1019.2
20260506200109 57 215 4.0 10.0 0.00 0.00 0.00 76 1019.2
20260506194210 57 196 2.0 6.0 0.00 0.00 0.00 76 1019.6
20260506193309 57 214 3.0 7.0 0.00 0.00 0.00 75 1019.8
20260506192407 57 220 2.0 4.0 0.00 0.00 0.00 75 1019.9
20260506191410 57 207 2.0 4.0 0.00 0.00 0.00 76 1019.5
20260506190410 57 208 2.0 6.0 0.00 0.00 0.00 76 1019.6
20260506185409 57 216 1.0 3.0 0.00 0.00 0.00 76 1019.6
20260506183509 58 224 4.0 11.0 0.00 0.00 0.00 77 1020.0
20260506182509 58 194 5.0 10.0 0.00 0.00 0.00 77 1020.5
20260506181608 59 191 5.0 8.0 0.00 0.00 0.00 76 1020.7
20260506180610 59 199 7.0 10.0 0.00 0.00 0.00 76 1020.7
20260506174608 60 201 3.0 12.0 0.00 0.00 0.00 78 1021.0
20260506173707 61 194 5.0 10.0 0.00 0.00 0.00 77 1020.8
20260506172709 60 190 4.0 8.0 0.00 0.00 0.00 77 1020.9